User: anonymous   Login
Location: Lafig�re
(44.4503°N, 4.0357°E)
Time: 01:11:24
(UTC+00:00)
Language:

Meteor 1-22 Rocket - Orbit

View from above orbital plane
View from above orbital plane
View from above satellite
View from above satellite

Ground track
Ground track

The orbit data is extracted from the following two-line orbital elements,

1  8294U 75087B   20336.22772634 -.00000005 +00000-0 -10187-4 0  9995
2  8294 081.2169 231.5027 0106231 079.9071 281.4064 14.08652015322417
Epoch (UTC): 01 December 2020 05:27:55
Eccentricity: 0.0106231
inclination: 81.2169°
perigee height: 787 km
apogee height: 941 km
right ascension of ascending node: 231.5027°
argument of perigee: 79.9071°
revolutions per day: 14.08652015
mean anomaly at epoch: 281.4064°
orbit number at epoch: 32241

The dashed part of the orbit path shows where the satellite is in the earth's shadow,  

DLR